Home   Weather   Cardiff   Past weeks
Flag for United Kingdom

Past Weather in Cardiff, Wales, United Kingdom — Yesterday and Last 2 Weeks

Now
75 °F

Mild.


Feels Like: 77 °F
Forecast: 76 / 62 °F
Wind: 3 mph from East

Location: Wales Airport

Current Time: Jul 23, 2019 at 9:10:51 pm

Latest Report: Jul 23, 2019 at 8:50 pm


Visibility: N/A

Pressure: 29.86 "Hg

Humidity: 61%

Dew Point: 61 °F

Location of CardiffLocation

Past Weather in Cardiff — Graph

°F

Cardiff Temperature Yesterday

Maximum temperature yesterday: 73 °F (at 4:20 pm)
Minimum temperature yesterday: 63 °F (at 10:20 pm)
Average temperature yesterday: 68 °F

High & Low Weather Summary for the Past Weeks

 TemperatureHumidityPressure
High86 °F (Jul 23, 4:20 pm)100% (Jul 9, 3:20 am)30.24 "Hg (Jul 9, 3:20 am)
Low54 °F (Jul 13, 12:20 am)43% (Jul 8, 7:20 pm)29.65 "Hg (Jul 20, 2:50 am)
Average64 °F79%30.04 "Hg
* Reported Jul 8 7:20 pm — Jul 23 7:50 pm, Cardiff. Weather by CustomWeather, © 2019

Note: Actual official high and low records may vary slightly from our data, if they occured in-between our weather recording intervals... More about our weather records

Advertising

Cardiff Weather History for the Previous 24 Hours

Scroll right to see more
 ConditionsComfort  
Time TempWeatherWind HumidityBarometerVisibility
7:50 pm
Tue, Jul 23
77 °FWarm.9 mph57%29.89 "HgN/A
7:20 pm77 °FWarm.7 mph57%29.89 "HgN/A
6:50 pm77 °FWarm.7 mph54%29.89 "HgN/A
6:20 pm79 °FWarm.9 mph51%29.89 "HgN/A
5:50 pm81 °FWarm.5 mph51%29.92 "HgN/A
5:20 pm82 °FWarm.6 mph48%29.92 "HgN/A
4:50 pm86 °FWarm.9 mph43%29.92 "HgN/A
4:20 pm86 °FWarm.9 mph43%29.92 "HgN/A
3:50 pm84 °FWarm.9 mph48%29.95 "HgN/A
3:20 pm84 °FWarm.10 mph48%29.95 "HgN/A
2:50 pm84 °FWarm.12 mph48%29.95 "HgN/A
2:20 pm82 °FWarm.12 mph55%29.95 "HgN/A
1:50 pm82 °FWarm.12 mph55%29.98 "HgN/A
1:20 pm79 °FWarm.12 mph61%29.98 "HgN/A
12:50 pm79 °FWarm.10 mph61%30.01 "HgN/A
12:20 pm77 °FWarm.9 mph65%30.01 "HgN/A
11:50 am75 °FMild.9 mph69%30.04 "HgN/A
11:20 am73 °FMild.10 mph69%30.04 "HgN/A
10:50 am72 °FMild.9 mph73%30.07 "HgN/A
10:20 am72 °FMild.8 mph78%30.07 "HgN/A
9:50 am68 °FScattered clouds.9 mph88%30.07 "HgN/A
9:20 am66 °FScattered clouds.8 mph94%30.07 "HgN/A
8:50 am64 °FPartly sunny.8 mph100%30.07 "Hg4 mi
8:20 am63 °FRain. Cloudy.7 mph100%30.09 "Hg1 mi
7:50 am63 °FFog.8 mph100%30.09 "Hg1 mi
7:20 am63 °FFog.7 mph100%30.09 "Hg1 mi
6:50 am63 °FLow clouds.7 mph100%30.09 "HgN/A
6:20 am63 °FLow clouds.6 mph100%30.09 "Hg6 mi
5:50 am63 °FMostly cloudy.5 mph100%30.09 "Hg4 mi
5:20 am63 °FMostly cloudy.1 mph100%30.09 "Hg5 mi
4:50 am63 °FMostly cloudy.5 mph100%30.12 "Hg4 mi
4:20 am63 °FPassing clouds.3 mph100%30.12 "Hg4 mi
3:50 am63 °FOvercast.2 mph100%30.12 "Hg4 mi
3:20 am63 °FFog.3 mph100%30.12 "Hg3 mi
2:50 am63 °FFog.5 mph100%30.15 "Hg3 mi
2:20 am63 °FFog.6 mph100%30.15 "Hg3 mi
1:50 am63 °FFog.7 mph100%30.15 "Hg2 mi
1:20 am63 °FFog.6 mph100%30.15 "Hg0 mi
12:50 am63 °FFog.5 mph100%30.15 "Hg0 mi
12:20 am63 °FFog.6 mph100%30.15 "Hg1 mi
11:50 pm
Mon, Jul 22
63 °FFog.7 mph100%30.15 "Hg1 mi
11:20 pm63 °FOvercast.7 mph100%30.15 "HgN/A
10:50 pm64 °FMostly cloudy.6 mph94%30.15 "HgN/A
10:20 pm63 °FPassing clouds.6 mph94%30.15 "HgN/A
9:50 pm64 °FPassing clouds.6 mph94%30.15 "HgN/A
9:20 pm64 °FPassing clouds.7 mph94%30.15 "HgN/A
Weather by CustomWeather, © 2019

See weather overview